COSMOS 1275 DEB, 12695

Orbit data source: Space-Track

COSMOS 1275 DEB, 12695 is space debris in LEO originally from a launch on Thu, 04 Jun 1981 UTC launched from the Plesetsk Missile And Space Complex (PKMTR). Debris objects in space refer to the collection of defunct objects orbiting the Earth. Examples of debris include non-operational satellites, rocket bodies, and fragments generated from explosions, collisions, or faulty payload assembly.

Loading next visibility...
COSMOS 1275 DEB details
Identifier
12695, 1981-053AP
Orbit
LEO
Last TLE update22 hours ago
Origin
Flag of CISVMF (CIS)
ManufacturerUnknown
MissionSpacecraft
Bus & MotorUnknown
MassUnknown
Launch date (UTC)
1981-06-04 (44 years ago)
Launch vehicleUnknown
Launch site
Plesetsk Missile And Space Complex (PKMTR)
Object type
Payload
Rocket body
Debris
Shape & HBRUnknown
Radar Cross SectionSmall (<0.1 m²)

Expand to show TLE details & history

TLE from 22 hours ago
0 COSMOS 1275 DEB
1 12695U 81053AP  24360.59713742  .00003699  00000-0  38219-2 0  9995
2 12695  83.0084 296.3483 0108552  93.7354  78.9136 13.73059616155371
Epoch: 2024-12-25T14:19Z
Definitive object data (Epoch: 2024-12-25T14:19:52.673Z)
Latitude6.00307°
Longitude166.05515°
Altitude976.387 km
Speed7.371 km/s
True Right ascension07h 42m 27s
True Declination5° 58' 06"
Sunlit
Object was in full shadow at TLE epoch
Visualization TLE readout
Latitude-70.00897°
Longitude-33.46234°
Altitude1,090.864 km
Speed7.268 km/s
Apparent Right ascension21h 41m 16s
Apparent Declination-60° 51' 27"
Sunlit
Object is in daylight
Visualization observer readout
Local Sidereal Time11:14:30
Azimuth153.286° SSE
Elevation-64.616°
Doppler factor1
Orbital elements
Apogee altitude1,065.692 km
Perigee altitude905.819 km
Semi-major axis7,363.893 km
Eccentricity0.0108552
Inclination83.0084°
RAAN296.3483°
Arg. of periapsis93.7354°
True anomaly80.1374°
Mean anomaly78.9136°
Eccentric anomaly79.52519°
Mean motion3.43465 °/min
BSTAR0.0038219
Orbital period104.81 mins
Loading maneuver chart data...
Loading historical data...
Loading historical data...
Loading historical data...
Loading historical data...
Loading historical data...
Loading historical data...
Loading historical data...

COSMOS 1275 DEB Visibility forecast

Observer location: undefined°, undefined

Span
Click to sort rows by Start time (UTC) header in descending order
Start Az.
Max El. time (UTC)
Max El. Az.
Max El.
End time (UTC)
End Az.
7 mins2024-12-26 19:22:05.532Z122.247° SE2024-12-26 19:25:05.532Z88.588° E19.169°2024-12-26 19:29:05.532Z42.702° NE
10 mins2024-12-26 21:06:05.532Z208.501° SW2024-12-26 21:11:05.532Z297.996° NW38.077°2024-12-26 21:16:05.532Z356.396° N
5 mins2024-12-27 06:20:05.532Z43.437° NE2024-12-27 06:22:05.532Z66.204° ENE16.117°2024-12-27 06:25:05.532Z99.62° ESE
10 mins2024-12-27 08:04:05.532Z344.57° N2024-12-27 08:08:05.532Z290.315° WNW42.127°2024-12-27 08:14:05.532Z186.297° SSW
|